This is the latest recevied weather packets stored in our database for station/object CW79215. If no packets are shown the sender has not sent any weather packets the latest 10 day(s).
| Time | Temp. | Humidity | Pressure | Rain* | Wind** | Luminosity | Snow |
|---|---|---|---|---|---|---|---|
| 1777166531 | 7.22° C | 61% | 1024.7 hPa | - | - | - | - |
| 1777165631 | 6.67° C | 63% | 1024.7 hPa | - | - | - | - |
| 1777164731 | 6.67° C | 62% | 1024.6 hPa | - | - | - | - |
| 1777163831 | 7.22° C | 63% | 1024.5 hPa | - | - | - | - |
| 1777162931 | 7.22° C | 62% | 1024.5 hPa | - | - | - | - |
| 1777162031 | 6.67° C | 62% | 1024.4 hPa | - | - | - | - |
| 1777161131 | 7.22° C | 62% | 1024.3 hPa | - | - | - | - |
| 1777160231 | 7.22° C | 62% | 1024.3 hPa | - | - | - | - |
| 1777159330 | 7.22° C | 61% | 1024.1 hPa | - | - | - | - |
| 1777158430 | 7.78° C | 59% | 1024.2 hPa | - | - | - | - |
| 1777157530 | 8.33° C | 57% | 1024.1 hPa | - | - | - | - |
| 1777156630 | 8.33° C | 58% | 1024 hPa | - | - | - | - |
| 1777155730 | 8.33° C | 57% | 1024.1 hPa | - | - | - | - |
| 1777154830 | 8.89° C | 55% | 1024.1 hPa | - | - | - | - |
| 1777153930 | 8.89° C | 55% | 1024.1 hPa | - | - | - | - |
| 1777153030 | 9.44° C | 54% | 1024 hPa | - | - | - | - |
| 1777152130 | 9.44° C | 53% | 1024 hPa | - | - | - | - |
| 1777151230 | 10.56° C | 50% | 1023.8 hPa | - | - | - | - |
| 1777150330 | 10.56° C | 51% | 1023.7 hPa | - | - | - | - |
| 1777149430 | 10.56° C | 51% | 1023.6 hPa | - | - | - | - |
| 1777148529 | 11.67° C | 45% | 1023.4 hPa | - | - | - | - |
| 1777147629 | 11.67° C | 46% | 1023.2 hPa | - | - | - | - |
| 1777146729 | 11.67° C | 47% | 1023.1 hPa | - | - | - | - |
| 1777145829 | 12.78° C | 46% | 1022.9 hPa | - | - | - | - |
| 1777144929 | 12.78° C | 44% | 1022.7 hPa | - | - | - | - |
* Rain since midnight (hover to see other rain measurements)
** Current wind speed in m/s (hover to see current wind gust speed)